Location: McMinnville
(35.6830°N, 85.7700°W)
Time: 00:55:38
(UTC-06:00)

ISS - Visible Passes

Search period start: 13 February 2026 00:00
Search period end: 23 February 2026 00:00
Orbit: 413 x 429 km, 51.6° (Epoch: 11 February)

Date Brightness Start Highest point End Pass type
(mag) Time Alt. Az. Time Alt. Az. Time Alt. Az.
13 Feb -2.6 04:44:30 37° SSE 04:44:50 39° SE 04:47:59 10° ENE visible
14 Feb -0.4 04:00:03 12° E 04:00:03 12° E 04:00:31 10° ENE visible
14 Feb -2.9 05:33:04 21° W 05:34:35 32° NW 05:37:37 10° NNE visible
15 Feb -2.8 04:48:22 38° NNE 04:48:22 38° NNE 04:50:43 10° NE visible
16 Feb -0.4 04:03:29 11° NE 04:03:29 11° NE 04:03:39 10° NE visible
16 Feb -1.7 05:36:29 13° NW 05:37:31 14° NNW 05:39:24 10° N visible
17 Feb -1.6 04:51:27 17° N 04:51:27 17° N 04:52:46 10° NNE visible
